Powrót do katalogu

THORAD DELTA 1 DEB

AktywnySSO
NORAD 8592·DEBRIS·🇺🇸 United States

Wystrzelony Nov 15, 1974 z Vandenberg Space Force Base

Loading…

Następne Przeloty (najbliższe 24 godziny)

TLE

ŚwieżeSource: Space-Track

Epoka: Sep 14, 2026, 03:38 UTC

1 08592U 74089DF  26257.15175047  .00000032  00000-0  60630-3 0  9997
2 08592 101.8223 333.3881 0122779 269.8641 120.6662 12.31902813329025

Śledź THORAD DELTA 1 DEB w czasie rzeczywistym z AllMySat

Download on the App Store